Change the Weather History Date:

Tuesday, September 10, 2013

  Actual Average (KMKC) Record (KMKC)
Temperature  
Mean Temperature 84 °F -  
Max Temperature 93 °F 81 °F 97 °F (2013)
Min Temperature 75 °F 61 °F 54 °F (2001)
Cooling Degree Days 19    
Growing Degree Days 34 (Base 50)    
Moisture  
Dew Point 62 °F    
Average Humidity 49    
Maximum Humidity 66    
Minimum Humidity 34    
Precipitation  
Precipitation 0.00 in - - ()
Sea Level Pressure  
Sea Level Pressure 30.01 in    
Wind  
Wind Speed 10 mph (SSW)    
Max Wind Speed 18 mph    
Max Gust Speed 26 mph    
Visibility 10 miles    
Events      
Averages and records for this station are not official NWS values.
T = Trace of Precipitation, MM = Missing Value Source: NWS Daily Summary

Daily Weather History Graph

Daily Weather History Graph

Search for Another Location

Airport or City:

Trip Planner

Search our weather history database for the weather conditions in past years. The results will help you decide how hot, cold, wet, or windy it might be!

Date:

Astronomy

Sep. 10, 2013 Rise Set
Actual Time 6:54 AM CDT 7:33 PM CDT
Civil Twilight 6:27 AM CDT 8:00 PM CDT
Nautical Twilight 5:55 AM CDT 8:31 PM CDT
Astronomical Twilight 5:23 AM CDT 9:04 PM CDT
Moon 12:17 PM CDT (9/10) 10:40 PM CDT (9/10)
Length of Visible Light 13h 32m
Length of Day
12h 38m
Waxing Crescent, 28% of the Moon is Illuminated
Sep 10
Waxing Crescent
Sep 12
First Quarter
Sep 19
Full
Sep 26
Last Quarter
Oct 4
New

Hourly Weather History & Observations

Time (CDT) Temp. Heat Index Dew Point Humidity Pressure Visibility Wind Dir Wind Speed Gust Speed Precip Events Conditions
12:53 AM 80.1 °F 81.1 °F 61.0 °F 52% 29.94 in 10.0 mi SSW 8.1 mph - N/A   Clear
1:53 AM 78.1 °F - 62.1 °F 58% 29.95 in 10.0 mi South 6.9 mph - N/A   Clear
2:53 AM 75.9 °F - 62.1 °F 62% 29.96 in 10.0 mi SSW 8.1 mph - N/A   Clear
3:53 AM 77.0 °F - 63.0 °F 62% 29.97 in 10.0 mi SSW 6.9 mph - N/A   Clear
4:53 AM 75.9 °F - 63.0 °F 64% 29.97 in 10.0 mi SSW 6.9 mph - N/A   Clear
5:53 AM 75.0 °F - 63.0 °F 66% 29.99 in 10.0 mi SSW 9.2 mph - N/A   Clear
6:53 AM 75.0 °F - 62.1 °F 64% 30.01 in 10.0 mi SSW 8.1 mph - N/A   Clear
7:53 AM 75.9 °F - 62.1 °F 62% 30.03 in 10.0 mi SSW 6.9 mph - N/A   Clear
8:53 AM 79.0 °F - 63.0 °F 58% 30.04 in 10.0 mi SW 11.5 mph 18.4 mph N/A   Clear
9:53 AM 82.9 °F 84.0 °F 63.0 °F 51% 30.05 in 10.0 mi SW 12.7 mph 18.4 mph N/A   Clear
10:53 AM 87.1 °F 88.3 °F 64.0 °F 46% 30.05 in 10.0 mi SW 11.5 mph 21.9 mph N/A   Clear
11:53 AM 90.0 °F 91.3 °F 64.0 °F 42% 30.04 in 10.0 mi SSW 17.3 mph 23.0 mph N/A   Clear
12:53 PM 91.9 °F 93.3 °F 64.0 °F 39% 30.04 in 10.0 mi SW 18.4 mph 24.2 mph N/A   Clear
1:53 PM 93.9 °F 95.6 °F 64.0 °F 37% 30.03 in 10.0 mi SW 16.1 mph 25.3 mph N/A   Clear
2:53 PM 93.9 °F 95.2 °F 63.0 °F 36% 30.01 in 10.0 mi SW 17.3 mph 24.2 mph N/A   Partly Cloudy
3:53 PM 91.9 °F 92.5 °F 62.1 °F 37% 30.00 in 10.0 mi SSW 13.8 mph - N/A   Partly Cloudy
4:53 PM 93.0 °F 93.0 °F 61.0 °F 34% 29.99 in 10.0 mi SSW 15.0 mph 26.5 mph N/A   Partly Cloudy
5:53 PM 91.9 °F 91.8 °F 61.0 °F 35% 29.98 in 10.0 mi SSW 15.0 mph 20.7 mph N/A   Clear
6:51 PM 89.6 °F 90.1 °F 62.6 °F 40% 30.02 in 10.0 mi SSW 9.2 mph 17.3 mph N/A   Partly Cloudy
6:53 PM 89.1 °F 89.3 °F 62.1 °F 40% 29.99 in 10.0 mi SSW 10.4 mph 16.1 mph N/A   Partly Cloudy
7:53 PM 86.0 °F 86.1 °F 61.0 °F 43% 30.01 in 10.0 mi South 8.1 mph - N/A   Clear
8:53 PM 84.0 °F 84.5 °F 62.1 °F 47% 30.03 in 10.0 mi South 6.9 mph - N/A   Clear
9:53 PM 82.0 °F 83.0 °F 62.1 °F 51% 30.05 in 10.0 mi South 6.9 mph - N/A   Clear
10:53 PM 80.1 °F 81.2 °F 62.1 °F 54% 30.06 in 10.0 mi SSW 8.1 mph - N/A   Clear
11:53 PM 79.0 °F - 61.0 °F 54% 30.06 in 10.0 mi SSW 9.2 mph - N/A   Clear